Regional Weather Roundup
Issued by NWS Sioux Falls, SD

Home | Current Version | Previous Version | Graphics & Text | Print | Product List | Glossary On
Versions: 1 2 3 4 5 6 7 8 9 10 11 12 13 14 15 16 17 18 19 20 21 22 23 24 25 26 27 28 29 30 31 32 33 34 35 36 37 38 39 40 41 42 43 44 45 46 47 48 49 50
000
ASUS43 KFSD 211902
RWRFSD

WEATHER ROUNDUP FOR SE SOUTH DAKOTA/SW MINNESOTA/NW IOWA
NATIONAL WEATHER SERVICE SIOUX FALLS SD
200 PM CDT SAT APR 21 2018

NOTE: "FAIR" INDICATES FEW OR NO CLOUDS BELOW 12,000 FEET WITH NO
SIGNIFICANT WEATHER AND OR OBSTRUCTIONS TO VISIBILITY.


SDZ038>040-050-052>070-212000-
SOUTHEAST SOUTH DAKOTA

CITY           SKY/WX    TMP DP  RH WIND       PRES   REMARKS
BROOKINGS      CLOUDY    50  35  56 SE8       30.34F
CHAMBERLAIN    CLOUDY    47  44  90 CALM      30.32F
HURON          CLOUDY    45  35  68 MISG      30.33F
MADISON        CLOUDY    45  45 100 E7        30.33F
MITCHELL       CLOUDY    44  37  76 N6        30.34F
SIOUX FALLS    CLOUDY    48  34  58 E7        30.33F
WINNER         CLOUDY    44  39  82 E8        30.31F
YANKTON        CLOUDY    48  36  63 E6        30.31F
$$

MNZ071-072-080-081-089-090-097-098-212000-
SOUTHWEST MINNESOTA

CITY           SKY/WX    TMP DP  RH WIND       PRES   REMARKS
FAIRMONT       CLOUDY    39  31  72 E3        30.38
JACKSON        CLOUDY    39  32  75 E5        30.36F
LUVERNE        CLOUDY    48  34  57 E9        30.34F
MARSHALL       NOT AVBL
MONTEVIDEO     SUNNY     55  36  47 SW5       30.38S
PIPESTONE      CLOUDY   N/A N/A N/A SE6       30.33F
REDWOOD FALLS  CLOUDY    50  32  50 S8        30.37F
TRACY          CLOUDY    47  35  61 CALM      30.37F
WINDOM         CLOUDY    45  25  45 NE6       30.36F
WORTHINGTON    CLOUDY    43  35  73 NE7       30.35F
$$

IAZ001>003-012>014-020>022-031-032-NEZ013-014-SDZ071-212000-
NORTHWEST IOWA

CITY           SKY/WX    TMP DP  RH WIND       PRES   REMARKS
CHEROKEE       CLOUDY    50  37  62 E9        30.32F
DENISON        CLOUDY    54  27  35 SE10      30.31F
ESTHERVILLE    CLOUDY    41  32  70 NE5       30.35F
LE MARS        CLOUDY    52  32  46 E10       30.32S
ORANGE CITY    CLOUDY    54  37  54 E10       30.32S
SHELDON        CLOUDY    54  36  50 E15       30.31F
SIOUX CITY     CLOUDY    51  34  52 E10       30.30F
SPENCER        CLOUDY    48  36  63 NE12      30.34F
STORM LAKE     CLOUDY    48  39  71 E14       30.32S
$$

ABBREVIATIONS USED IN REMARKS
   TC - TEMPERATURE IN CELSIUS
  WCI - WIND CHILL INDEX
   HX - HEAT INDEX
  VSB - VISIBILITY




USA.gov is the U.S. government's official web portal to all federal, state and local government web resources and services.